Hourly Data Report for October 25, 2014

All times are specified in Local Standard Time (LST). Add 1 hour to adjust for Daylight Saving Time where and when it is observed.

Metadata including Station Name, Province, Latitude, Longitude, Elevation, Climate ID, WMO ID, TC ID
PUVIRNITUQ A
QUEBEC
Latitude: 60°03'08.000" N Longitude: 77°17'15.000" W Elevation: 25.30 m
Climate ID: 7106223 WMO ID: TC ID: YPX
Hourly Data Report for October 24, 2014
Temp Definition
°C

Dew Point Temp Definition
°C

Rel Hum Definition
%

Wind Dir Definition
10's deg
Wind Spd Definition
km/h

Visibility Definition
km

Stn Press Definition
kPa

Hmdx Definition

Wind Chill Definition

Weather Definition

00:00 Legend Double Dagger -4.0 -6.4 83 6 34 16.1 101.75 -12 LegendNANA
01:00 Legend Double Dagger -4.0 -6.4 84 7 32 16.1 101.76 -12 LegendNANA
02:00 Legend Double Dagger -3.9 -6.2 84 7 35 16.1 101.71 -12 LegendNANA
03:00 Legend Double Dagger -3.4 -5.9 83 7 32 16.1 101.68 -11 LegendNANA
04:00 Legend Double Dagger -3.2 -5.5 84 7 34 16.1 101.62 -11 LegendNANA
05:00 Legend Double Dagger -3.2 -5.7 83 7 37 16.1 101.62 -11 LegendNANA
06:00 Legend Double Dagger -3.1 -5.6 83 7 34 16.1 101.59 -11 LegendNANA
07:00 Legend Double Dagger -3.1 -5.9 81 8 37 16.1 101.56 -11 LegendNANA
08:00 Legend Double Dagger -3.2 -6.3 79 8 45 16.1 101.52 -12 LegendNANA
09:00 Legend Double Dagger -3.1 -6.8 76 8 43 16.1 101.46 -12 LegendNANA
10:00 Legend Double Dagger -3.2 -7.0 75 8 50 16.1 101.40 -13 LegendNANA
11:00 Legend Double Dagger -3.2 -6.3 79 8 46 16.1 101.36 -12 Snow
12:00 Legend Double Dagger -3.6 -4.8 92 9 45 3.2 101.29 -13 Snow
13:00 Legend Double Dagger -3.3 -4.6 91 9 39 4.8 101.18 -12 Snow
14:00 Legend Double Dagger -3.2 -4.3 92 9 45 4.8 101.06 -12 Snow
15:00 Legend Double Dagger -3.1 -3.9 94 9 50 3.2 100.97 -12 Snow
16:00 Legend Double Dagger -3.0 -3.7 95 9 52 1.6 100.92 -12 Snow
17:00 Legend Double Dagger -2.7 -3.4 95 9 46 3.2 100.88 -12 Snow
18:00 Legend Double Dagger -2.4 -3.1 95 9 45 2.4 100.78 -11 Snow
19:00 Legend Double Dagger -2.3 -2.9 96 9 52 3.2 100.72 -11 Snow
20:00 Legend Double Dagger -1.9 -2.7 94 10 50 9.7 100.63 -11 Snow
21:00 Legend Double Dagger -1.8 -3.1 91 10 54 16.1 100.54 -11 Snow
22:00 Legend Double Dagger -1.8 -3.1 91 10 46 16.1 100.49 -10 LegendNANA
23:00 Legend Double Dagger -1.7 -2.8 92 10 50 16.1 100.43 -10 LegendNANA

Notes on Data Quality.

Legend
  • E = Estimated
  • M = Missing
  • NA = Not Available
  • ‡ = Partner data that is not subject to review by the National Climate Archives